Regional Weather Roundup
Issued by NWS

Home | Current Version | Previous Version | Graphics & Text | Print | Product List | Glossary On
Versions: 1 2 3 4 5 6 7 8 9 10 11 12 13 14 15 16 17 18 19 20 21 22 23 24 25 26 27 28 29 30 31 32 33 34 35 36 37 38 39 40 41 42 43 44 45 46 47 48 49 50
000
ASUS43 KLSX 022007
RWRMO

WEATHER SUMMARY FOR MISSOURI
NATIONAL WEATHER SERVICE SPRINGFIELD MO
200 PM CST MON MAR 02 2015

NOTE: "FAIR" INDICATES FEW OR NO CLOUDS BELOW 12,000 FEET WITH NO
       SIGNIFICANT WEATHER AND/OR OBSTRUCTIONS TO VISIBILITY.
       CURRENT SKY AND/OR WEATHER CONDITIONS ARE NOT AVAILABLE FOR
       CHILLICOTHE AND FARMINGTON.

MOZ001>031-035>038-043-044-053-054-022100-
...NORTHERN AND WESTERN MISSOURI...

CITY           SKY/WX    TMP DP  RH WIND       PRES   REMARKS
KANSAS CTY INT CLOUDY    39  19  44 E13       30.33F
KANSAS C DTWN  MOSUNNY   39  18  42 SE10      30.34F
LEE`S SUMMIT   PTSUNNY   37  20  50 SE12      30.34F WCI  29
ST JOSEPH      PTSUNNY   42  21  43 S10       30.34F
CHILLICOTHE      N/A     38  22  52 SE10G17   30.38F
KIRKSVILLE     PTSUNNY   32  22  66 SE9       30.40F WCI  24

$$
MOZ066>068-077>081-088>096-101>105-022100-
...SOUTHWEST MISSOURI...

CITY           SKY/WX    TMP DP  RH WIND       PRES   REMARKS
SPRINGFIELD    CLOUDY    38  19  46 E15       30.30F WCI  29
JOPLIN         CLOUDY    36  21  54 SE8       30.30F WCI  30

$$
MOZ032>034-039>042-045>050-055>058-069>072-022100-
...CENTRAL MISSOURI...

CITY           SKY/WX    TMP DP  RH WIND       PRES   REMARKS
COLUMBIA       MOSUNNY   35  18  49 E12       30.37F WCI  27
JEFFERSON CITY PTSUNNY   36  16  44 E8        30.40F WCI  30
ROLLA          CLOUDY    34  16  47 E12       30.35F WCI  25
SEDALIA        MOSUNNY   35  18  49 E12       30.37F WCI  27
WHITEMAN AFB   PTSUNNY   35  19  53 E8        30.35F WCI  28
WARRENSBURG    MOSUNNY   36  21  55 E8        30.37F WCI  29
OSAGE BEACH    CLOUDY    37  18  44 E8        30.37F

$$
MOZ051-052-059>065-022100-
...EAST CENTRAL MISSOURI...

CITY           SKY/WX    TMP DP  RH WIND       PRES   REMARKS
ST LOUIS INTL  PTSUNNY   35  16  45 SE5       30.46F
SPIRIT OF STL  MOSUNNY   36  16  44 SE10G16   30.44F WCI  28
ST CHARLES     PTSUNNY   34  21  59 E9        30.46F WCI  27

$$
MOZ072>076-082>087-097>100-106>115-022100-
...SOUTH CENTRAL AND SOUTHEAST MISSOURI...

CITY           SKY/WX    TMP DP  RH WIND       PRES   REMARKS
CAPE GIRARDEAU MOSUNNY   39  19  44 NE10      30.42F
FARMINGTON     MOSUNNY   34  18  51 E9        30.43F WCI  26
POPLAR BLUFF   MOSUNNY   36  19  50 NE12      30.40F WCI  28
WEST PLAINS    CLOUDY    38  18  44 SE7       30.35F

$$



USA.gov is the U.S. government's official web portal to all federal, state and local government web resources and services.